Temp
26 25 23 24 24 25 29 30 32 32 31 32 32 31 30 29 29 24 27 25 24 23 22 22 21 21 21 22 21 22 21 21 21 21 21 21 21 21 21 21 22 22 22 21 21 21 21 21 21
27 24 24 24 26 28 28 32 30 31 32 31 31 30 30 28 29 27 26 25 25 24 23 22 22 22 21 21 21 21 21 21 21 21 21 21 21 21 21 22 22 22 22 22 21 21 21 21 21
26 25 25 24 27 29 27 30 32 32 33 33 32 31 30 28 29 29 27 26 25 23 23 23 22 22 21 21 21 21 21 21 21 21 21 21 21 21 21 21 21 22 22 22 22 21 21 21 21
25 24 23 26 30 32 32 33 33 34 34 33 30 29 28 29 30 30 28 26 25 24 24 23 22 21 21 21 21 21 21 21 21 21 21 21 21 22 22 22 22 21 22 21 22 22 22 22 23
21 21 24 26 30 33 35 35 34 34 34 32 31 28 27 29 31 30 27 26 25 24 23 23 23 22 21 21 21 21 21 21 21 21 21 21 21 22 21 22 21 22 22 22 22 22 23 23 23
21 21 24 26 31 32 34 33 33 33 33 31 29 28 27 30 31 29 26 25 25 24 22 23 23 22 21 21 21 21 21 21 22 22 22 21 22 21 21 21 22 21 21 21 21 22 22 23 24
23 22 23 25 27 30 34 33 32 32 33 32 31 27 26 29 31 30 27 26 25 24 23 23 23 22 21 21 21 21 21 21 22 22 22 21 21 21 22 21 21 21 21 21 21 21 22 23 24
22 22 24 24 26 25 31 32 33 32 32 33 30 27 26 28 31 31 27 26 25 24 24 24 24 23 22 22 21 21 22 21 21 22 21 20 21 21 21 21 21 21 21 21 21 21 21 22 23
32 25 24 25 26 26 28 30 34 35 33 34 32 30 29 30 30 30 29 27 25 25 25 24 25 23 23 22 22 21 23 22 21 22 21 20 21 21 21 21 21 21 21 21 21 21 21 22 23
28 24 26 27 27 27 24 27 33 33 31 30 31 31 29 29 29 30 29 28 28 26 25 25 24 24 23 24 24 23 22 22 22 22 22 21 21 21 21 21 22 21 22 21 21 21 21 22 23
24 23 25 26 28 29 28 28 34 31 29 29 27 29 29 29 29 30 29 29 29 28 28 26 25 25 24 24 24 23 23 23 23 22 22 21 21 21 21 21 21 21 21 21 21 21 21 22 22
30 26 27 30 31 29 24 27 34 32 31 30 29 31 27 26 28 29 28 29 29 29 29 27 27 26 25 25 24 24 23 23 23 21 21 21 21 21 21 22 22 22 22 22 22 22 23 23 23
27 27 27 29 28 30 28 29 34 33 34 31 30 30 27 26 28 26 29 29 29 29 29 28 28 26 26 25 24 24 23 23 23 24 23 22 22 21 21 22 22 21 22 23 22 23 23 23 24
29 27 29 30 29 35 35 33 34 33 34 31 30 28 27 25 24 26 26 26 28 27 29 28 27 28 28 26 25 24 25 25 25 24 24 22 21 21 21 22 22 22 22 23 23 23 23 24 24
32 29 29 31 29 35 34 32 31 33 33 31 28 27 28 24 24 27 29 26 28 29 28 28 27 27 28 27 26 25 26 25 25 23 22 22 22 23 22 22 22 22 23 23 23 23 24 24 25
30 30 27 28 28 33 33 29 31 32 32 30 29 28 27 24 24 28 27 22 24 27 26 28 27 27 27 27 26 27 26 26 25 24 25 23 24 24 23 23 22 23 23 23 23 23 24 25 25
27 25 28 29 27 29 32 29 32 32 30 29 28 27 26 25 27 26 25 24 24 25 29 28 28 28 27 27 26 27 27 26 27 25 24 25 25 25 25 24 23 23 23 23 23 24 24 25 25
23 25 27 27 28 31 29 30 32 31 30 29 26 25 26 26 26 27 27 29 29 29 29 28 28 28 27 27 27 27 27 27 27 27 26 26 25 25 25 24 23 23 23 23 23 23 24 24 25
27 26 25 31 30 30 28 31 31 31 30 29 27 26 27 27 27 29 30 31 30 30 28 27 28 28 27 27 27 28 28 28 28 27 26 27 26 26 25 25 24 23 23 23 24 24 24 24 24
26 26 25 29 29 28 29 31 32 32 30 29 28 28 27 27 29 29 27 29 29 29 28 28 28 28 28 28 28 28 28 28 28 27 26 27 27 26 26 25 24 24 24 24 23 23 24 24 24
27 28 28 29 32 31 31 30 31 32 31 30 30 29 29 29 28 28 28 26 27 27 28 29 28 28 28 28 27 28 28 28 28 27 28 27 27 27 26 25 25 24 24 24 24 24 24 24 24
24 33 31 31 29 27 30 27 29 31 31 31 31 31 30 29 29 29 29 30 28 28 29 29 28 28 28 28 28 28 28 28 28 27 28 28 27 27 27 26 26 25 25 25 24 24 24 24 24
27 33 32 33 25 27 28 26 27 27 30 30 31 31 31 31 30 29 30 31 29 29 29 29 29 28 28 28 28 28 28 28 28 28 28 28 27 27 27 26 26 25 25 25 25 24 24 24 24
31 31 29 28 26 26 27 26 26 28 30 31 32 32 32 31 31 31 32 32 31 29 29 29 29 29 28 28 28 27 28 28 28 28 27 28 28 27 27 26 26 26 25 25 25 24 24 24 24
31 26 24 26 25 25 25 25 29 32 33 33 32 32 32 32 31 31 31 32 31 30 30 29 29 29 29 28 28 28 28 28 28 28 28 29 28 28 27 26 26 26 26 25 25 25 25 25 24
28 26 24 25 24 24 24 25 29 34 35 33 34 33 33 32 32 32 31 32 32 31 31 30 29 29 29 28 28 28 28 27 27 28 28 28 28 28 28 27 26 26 26 25 25 23 25 25 25
29 28 27 22 22 22 23 25 29 34 35 34 34 33 32 32 32 31 31 32 32 32 31 30 30 30 29 29 28 27 28 27 27 28 28 29 28 29 28 27 26 26 25 25 24 24 25 25 25
32 28 27 25 23 23 23 23 25 29 29 34 34 33 33 32 32 31 32 33 33 33 31 31 31 30 30 29 28 27 27 27 27 27 27 28 28 28 27 27 27 26 27 25 25 25 25 24 24
29 30 31 27 27 25 23 25 23 29 29 28 32 34 33 33 31 33 34 34 34 34 33 31 30 30 29 29 29 28 28 27 27 28 28 28 28 28 27 27 27 26 24 24 24 24 23 23 23
34 32 30 28 25 26 25 26 31 30 29 30 33 33 33 34 34 34 33 31 31 32 33 29 29 29 29 29 28 29 28 28 27 27 28 28 28 27 27 26 26 25 24 24 24 23 22 22 22
Height
769 769 771 769 791 787 783 777 752 756 760 750 743 754 767 763 773 808 784 791 795 799 804 807 809 810 812 814 816 818 819 821 823 823 824 824 826 826 828 829 830 831 833 834 836 837 839 840 841
767 768 771 770 788 793 793 758 769 760 753 748 752 758 766 780 766 776 786 790 792 797 803 806 809 811 813 815 817 819 821 822 823 825 825 826 827 828 829 830 831 833 834 835 836 838 839 841 842
768 771 775 780 781 786 796 769 760 754 746 749 759 757 766 780 773 776 784 788 793 798 802 806 809 812 813 816 818 820 822 823 824 825 827 828 828 829 830 831 832 834 836 836 838 840 841 841 843
771 766 775 788 776 759 758 752 750 753 746 749 759 776 770 771 773 777 783 788 792 797 803 806 809 813 815 816 819 821 822 824 825 827 828 829 829 830 830 832 833 835 837 838 839 840 841 842 843
772 777 798 798 778 754 741 740 743 752 751 756 759 781 780 772 775 780 785 786 792 798 803 806 810 813 815 816 819 821 824 826 826 828 829 829 829 830 831 833 834 836 838 840 841 842 844 844 844
788 796 810 806 773 757 741 742 747 752 753 762 771 779 783 777 777 782 784 787 794 798 804 807 811 814 816 817 820 823 826 828 829 830 831 831 830 830 832 833 835 837 839 841 842 843 845 846 845
798 809 818 807 791 769 748 741 752 759 758 763 762 785 782 778 778 783 786 788 795 800 803 807 811 815 817 819 822 824 826 828 829 830 831 832 833 832 832 833 835 837 839 841 842 844 844 846 845
781 806 813 802 804 797 758 757 747 755 761 752 756 783 787 776 778 782 788 790 795 800 803 807 810 814 818 822 823 824 825 827 829 830 831 831 832 833 834 833 835 837 839 841 842 843 845 845 846
745 792 807 800 793 791 770 766 744 742 754 749 752 759 767 775 777 782 788 792 796 801 803 807 809 814 818 821 822 824 824 826 828 830 831 832 831 832 834 835 834 835 837 841 842 843 845 845 846
767 798 794 775 774 782 785 769 749 753 758 762 760 760 770 775 779 783 786 792 796 802 804 806 810 814 819 819 821 824 825 827 827 829 830 831 831 832 832 834 835 836 837 839 841 843 844 845 845
776 797 776 769 764 766 776 772 745 757 769 765 767 768 771 776 779 781 787 790 794 800 804 807 810 813 817 818 820 823 824 825 827 827 828 830 831 832 832 833 835 836 837 838 840 842 843 844 845
771 774 772 755 752 764 783 758 748 749 755 752 756 761 771 780 781 782 788 792 795 799 802 806 809 812 816 819 821 822 825 824 823 824 824 827 829 831 831 832 833 835 837 838 839 841 842 843 844
773 769 764 754 758 750 756 760 746 749 743 750 759 767 774 779 781 786 787 790 795 799 804 808 809 814 817 818 822 823 822 821 819 820 822 825 828 828 830 830 832 834 836 838 839 840 841 842 843
757 762 754 757 755 737 743 747 743 748 743 753 760 769 773 779 781 784 791 793 795 801 801 805 809 812 814 818 822 821 820 819 817 818 821 826 823 818 825 826 828 830 833 835 838 839 840 841 842
751 769 760 761 748 740 739 760 762 747 745 756 768 771 772 780 782 783 784 793 794 798 802 803 808 811 813 817 821 820 818 817 817 826 827 824 822 822 821 823 826 827 830 832 836 837 838 839 839
766 764 788 763 762 743 743 782 755 747 754 764 768 771 778 780 782 780 788 800 798 800 806 803 808 811 814 816 818 818 818 817 818 822 820 823 820 822 821 822 824 826 829 831 833 835 836 836 837
789 809 793 780 769 766 755 773 752 749 757 768 771 775 777 781 782 786 795 803 803 806 800 804 806 809 813 815 817 818 818 817 815 819 815 819 819 820 820 822 823 825 827 830 832 833 833 834 834
824 809 793 788 762 758 767 765 754 755 760 768 773 775 777 778 779 786 790 791 795 796 798 802 805 808 812 815 816 817 816 815 816 816 818 819 819 819 821 822 823 824 826 829 831 832 832 833 832
798 800 802 762 751 764 775 762 758 756 762 769 774 776 775 777 777 780 781 784 787 791 796 801 803 808 811 814 814 814 814 815 816 816 817 818 819 820 820 821 823 824 826 828 829 830 831 832 832
798 796 798 772 754 772 771 767 756 753 760 763 769 772 775 776 774 776 779 782 783 789 794 799 801 805 809 810 811 812 813 812 815 816 818 819 820 821 821 821 822 823 824 825 827 828 829 830 831
786 788 781 776 752 756 757 773 765 752 753 759 761 764 767 770 773 773 777 779 783 788 793 795 799 802 805 808 810 810 811 813 814 816 816 818 819 820 819 819 820 821 822 823 825 827 828 828 828
804 736 766 768 776 802 764 813 779 761 758 758 758 760 762 765 769 771 773 776 782 786 789 792 796 799 801 803 805 807 808 810 812 814 816 816 817 817 817 818 818 819 821 822 823 824 825 825 825
796 745 759 759 793 787 782 803 787 772 768 760 754 755 756 758 763 769 771 773 776 781 785 789 793 795 797 799 801 803 805 807 809 811 812 813 814 815 815 817 818 818 818 819 820 822 822 822 823
754 751 766 775 789 819 798 802 790 776 758 753 747 748 750 753 756 760 763 767 772 777 781 785 788 791 793 796 798 800 803 805 808 810 812 811 812 812 813 814 816 816 816 817 820 821 822 822 821
754 777 824 822 833 839 813 819 780 740 733 735 741 743 744 746 751 755 759 762 766 772 777 781 785 788 791 792 795 797 800 802 806 807 808 809 810 809 811 813 816 818 819 820 823 823 820 819 818
770 778 815 848 854 849 822 825 774 719 715 724 727 733 738 742 745 749 753 757 761 767 771 777 782 786 789 791 792 795 797 800 803 805 806 807 809 806 810 813 818 821 821 818 816 816 817 817 815
772 788 784 833 846 854 837 812 758 725 720 727 729 732 735 738 740 745 748 753 758 763 768 773 779 783 785 787 790 793 796 799 802 804 805 805 807 807 810 816 819 819 818 817 813 815 815 814 812
741 760 800 811 854 863 848 833 806 765 759 732 731 731 732 731 736 740 744 749 755 760 766 771 775 778 779 783 788 791 794 797 800 802 803 804 805 806 811 812 814 813 811 814 814 812 811 808 809
763 762 758 788 799 836 866 831 783 761 751 750 734 724 726 728 731 734 737 742 746 753 760 765 771 775 778 780 783 787 791 794 796 798 801 802 803 807 809 811 810 809 808 810 813 810 808 806 807
715 740 751 792 820 809 821 816 742 741 738 732 726 723 722 721 723 724 731 739 746 752 757 764 769 774 778 780 782 783 787 791 793 795 797 799 802 805 805 805 806 806 806 808 809 808 807 806 806
Wind_Speed
6 5 5 4 2 2 1 1 6 8 8 8 16 18 13 9 5 6 25 31 27 25 23 19 16 16 14 14 13 12 10 10 10 11 9 9 9 10 9 9 11 9 10 11 13 15 15 13 14
6 6 5 4 2 2 3 9 13 12 10 8 18 18 18 14 11 14 24 33 26 26 22 20 17 16 15 14 12 12 11 10 10 11 9 10 11 12 11 11 11 11 11 13 15 15 14 13 12
3 5 1 2 3 2 6 3 10 10 14 12 8 13 6 12 14 12 38 33 29 26 22 21 18 15 15 13 13 12 12 11 11 11 11 12 12 12 11 11 11 12 12 14 15 15 13 13 13
7 4 3 4 6 4 7 14 8 7 14 15 15 8 6 4 8 21 33 36 38 30 24 22 20 16 14 14 13 13 13 13 13 13 13 12 11 12 11 11 10 11 11 13 14 15 15 14 14
6 1 4 5 3 5 11 15 7 11 10 19 14 8 4 8 25 29 39 41 35 28 26 23 20 17 15 15 14 14 14 14 15 13 12 12 12 10 9 9 10 10 11 12 13 13 12 14 13
5 2 2 4 5 4 13 14 8 7 17 17 15 9 3 8 24 28 37 36 29 29 25 23 19 16 15 14 14 13 12 12 13 10 6 9 10 11 9 9 10 9 10 11 11 12 13 11 13
7 4 3 10 13 5 7 12 7 6 11 12 15 6 6 4 19 27 35 34 29 27 27 25 20 16 14 14 13 12 12 11 11 9 5 7 8 9 10 10 10 11 9 10 11 11 12 12 12
7 6 1 1 10 1 10 13 12 7 3 16 15 6 8 9 19 20 34 38 31 27 27 25 21 19 16 15 13 11 10 10 9 5 5 6 5 7 8 9 11 11 9 9 11 11 11 12 13
10 4 3 5 4 2 18 6 12 10 6 5 5 9 21 25 23 14 31 30 33 29 27 23 23 20 18 16 13 12 9 9 7 3 4 3 4 10 6 5 10 11 10 10 10 11 11 11 11
4 4 2 6 5 5 6 10 7 6 5 12 13 18 30 29 21 18 20 20 23 27 29 26 24 23 20 17 12 11 8 6 3 3 3 0 2 10 10 6 7 10 11 12 11 11 10 10 9
4 6 7 12 17 15 12 19 15 12 4 10 9 22 20 20 16 15 18 25 18 30 26 29 27 24 20 18 16 12 8 6 1 3 6 6 4 6 15 12 10 12 11 12 13 12 12 12 9
3 6 6 7 10 10 5 13 9 7 7 14 14 16 12 5 11 14 14 18 26 25 20 22 23 21 21 18 17 11 10 4 5 4 7 8 8 7 10 15 13 11 14 13 11 12 11 10 11
9 11 13 24 22 22 19 14 4 9 7 16 15 12 18 16 16 13 16 16 9 23 20 24 22 22 20 15 16 15 12 8 1 5 3 3 9 9 11 12 15 15 13 14 15 12 11 11 11
6 17 19 7 19 12 10 7 1 7 3 19 17 13 8 16 14 13 14 4 9 14 25 27 21 18 14 13 16 16 13 8 3 9 8 5 4 6 9 16 17 20 19 16 16 15 17 13 13
3 7 12 10 15 3 10 4 8 7 4 22 18 10 10 16 15 16 16 5 2 10 26 24 17 13 16 11 12 13 8 8 8 7 13 12 10 6 6 11 17 19 24 21 19 13 11 18 13
5 2 4 11 18 4 6 3 8 6 13 15 15 11 12 16 20 18 24 16 16 14 22 20 15 16 16 14 10 8 12 9 8 5 6 18 11 7 7 9 13 15 22 20 18 16 12 18 14
10 7 6 5 11 6 4 3 7 11 15 12 12 11 9 8 13 15 24 28 34 18 25 23 19 16 16 12 12 9 7 12 7 8 4 9 4 5 4 5 11 14 20 20 18 18 14 16 19
16 7 13 3 6 2 9 5 10 16 16 11 14 11 11 7 6 19 26 20 25 14 18 15 18 16 12 15 9 10 9 14 11 8 4 9 7 4 2 4 10 13 14 18 19 18 18 18 22
8 4 13 12 12 8 9 6 11 15 16 12 13 11 11 13 12 20 22 18 21 15 16 14 20 16 14 13 11 9 5 9 4 11 9 6 5 6 2 3 8 11 13 14 16 17 17 18 18
11 15 18 10 15 5 10 11 11 11 19 16 14 14 14 12 12 14 24 26 24 25 20 17 16 14 14 12 10 3 4 6 10 17 10 4 7 5 5 3 6 8 14 14 16 16 14 18 17
17 12 13 6 8 16 10 6 7 8 17 16 16 15 15 14 12 11 16 28 33 28 27 20 17 17 13 15 9 9 6 6 9 11 10 10 8 7 6 8 7 7 8 14 15 16 14 14 14
12 6 15 6 3 2 4 1 4 6 7 18 17 16 14 13 16 15 13 16 30 32 29 25 24 22 18 15 14 11 7 9 5 14 8 8 10 13 10 10 8 7 5 7 12 15 16 14 15
12 18 8 1 3 3 1 4 6 5 7 8 11 18 18 16 16 18 18 22 35 36 32 28 28 26 21 19 17 13 13 10 9 9 12 10 11 11 11 11 11 10 7 8 8 13 15 16 14
7 11 8 4 3 5 7 5 6 5 11 10 8 20 19 16 15 18 26 28 25 32 33 34 32 31 26 22 17 15 15 14 8 9 13 9 11 12 13 13 11 11 9 6 6 9 11 13 16
2 8 5 6 7 4 12 7 14 9 15 15 15 12 21 19 19 18 18 19 24 32 30 33 35 31 27 21 20 19 16 13 12 7 11 11 9 17 15 12 11 7 5 5 9 12 13 13 15
4 6 7 5 2 5 9 6 10 9 16 17 16 14 14 16 18 17 15 22 23 31 30 31 33 29 24 23 22 20 20 17 12 11 12 10 9 6 16 12 4 2 3 2 10 13 18 14 13
1 6 5 9 1 4 3 11 12 9 15 14 16 14 13 10 11 13 13 26 20 29 27 34 33 28 25 23 22 19 20 18 15 13 11 8 5 4 12 7 3 1 6 12 10 15 16 14 13
9 12 4 4 5 2 10 8 5 12 11 11 15 14 14 11 9 12 10 22 27 32 33 35 34 29 25 22 23 21 19 18 17 14 11 12 6 4 12 9 3 2 3 16 13 13 13 10 11
5 4 5 6 3 5 6 9 8 6 7 4 9 15 15 13 10 14 14 23 31 32 34 37 31 24 23 24 23 23 23 20 20 20 14 12 12 3 1 1 5 4 6 6 10 9 7 6 8
7 7 6 5 5 2 5 5 6 4 3 11 6 6 8 14 11 18 13 17 17 8 23 26 21 17 6 12 24 26 23 22 19 18 19 13 9 4 5 6 6 9 3 3 7 6 7 10 12
Wind_Direction
239 248 268 247 168 242 108 265 132 85 61 62 73 74 77 49 71 142 151 139 138 141 144 140 131 125 121 122 127 129 126 118 115 115 112 114 117 116 112 106 102 95 113 131 130 124 122 119 121
228 253 235 278 141 153 61 75 73 89 111 96 93 84 66 73 92 118 136 139 142 139 141 140 138 129 127 124 126 127 125 119 112 116 115 105 109 111 110 107 106 97 108 132 129 127 129 130 126
239 251 277 222 231 119 126 179 116 140 145 112 92 67 76 121 134 128 139 140 131 133 142 143 140 135 131 132 130 127 121 120 118 119 109 108 110 111 107 107 112 110 110 128 134 133 131 139 133
4 6 35 312 114 94 124 118 142 110 114 102 104 71 72 54 113 136 144 135 139 144 145 141 140 137 133 133 135 133 129 126 122 119 112 110 114 109 105 108 112 113 109 125 137 142 143 141 140
48 76 14 316 229 170 119 133 144 137 105 114 104 106 60 50 133 143 130 136 137 137 138 138 137 137 139 137 138 135 131 126 128 121 114 114 114 115 110 111 113 117 123 121 133 138 145 141 141
57 49 221 310 346 352 94 82 68 52 91 101 92 104 85 125 149 134 132 132 136 133 139 136 133 137 139 142 141 134 132 134 133 119 113 118 119 114 114 123 129 122 123 129 127 142 146 154 149
104 327 298 312 317 45 105 94 84 42 75 103 136 110 146 168 167 146 135 132 136 139 141 136 133 136 142 141 137 136 141 145 145 155 128 141 114 117 120 122 136 135 132 138 146 148 157 158 158
129 156 95 160 291 2 311 336 136 128 103 124 141 146 163 188 172 152 134 136 139 142 142 141 139 142 143 140 141 148 146 147 138 125 136 126 138 137 110 125 138 138 145 154 159 161 166 168 160
201 92 151 207 283 260 330 278 162 112 116 66 126 133 149 161 172 165 140 140 144 146 145 150 147 147 143 144 151 156 151 146 146 131 159 195 172 168 148 148 156 154 164 167 168 167 169 175 184
32 47 267 201 200 161 219 281 273 90 83 79 111 125 141 162 181 157 125 146 147 156 159 163 155 158 156 147 149 151 147 141 158 207 201 99 162 175 176 199 182 174 171 174 181 183 180 184 188
126 171 236 280 236 241 252 300 246 117 88 149 140 140 151 166 148 157 133 146 158 149 152 165 167 163 157 168 155 152 151 159 181 256 254 253 247 179 189 191 191 184 181 179 188 193 201 196 191
97 170 208 273 234 207 159 273 108 130 187 155 154 144 118 145 171 176 134 172 145 156 174 158 161 163 168 179 162 161 140 152 260 283 267 242 246 213 204 207 201 199 197 191 195 197 198 196 210
117 157 256 262 283 161 196 220 88 87 82 152 145 134 148 183 166 70 159 199 145 150 172 162 148 152 159 129 170 173 160 142 283 130 192 241 241 275 243 220 203 204 207 206 203 204 211 217 230
143 183 213 276 304 213 161 109 123 91 172 156 150 152 154 110 114 149 90 26 131 174 163 145 141 160 172 112 150 170 179 212 34 249 223 198 178 263 224 224 214 204 205 212 208 217 227 216 222
36 206 226 184 253 137 113 55 92 92 150 137 118 154 153 109 122 165 127 66 298 129 141 146 153 170 166 159 166 175 206 241 244 289 251 223 168 195 191 208 213 207 199 208 217 234 239 212 215
334 195 7 341 357 335 114 227 122 151 113 128 139 143 113 135 160 165 173 148 176 248 169 145 153 160 161 177 178 182 222 244 247 215 153 181 171 134 145 186 203 207 202 206 224 229 225 212 224
3 331 328 130 239 265 269 157 145 129 127 133 113 115 126 120 173 167 151 168 193 204 148 154 156 160 172 188 205 212 236 206 235 168 103 173 157 116 67 162 187 193 198 205 213 218 229 222 232
292 321 328 248 275 158 265 203 155 142 134 140 134 136 144 168 224 135 150 139 167 144 154 157 169 168 189 195 207 217 245 237 217 199 182 157 177 142 163 152 175 176 185 203 209 217 225 234 233
301 347 285 253 265 332 26 201 163 149 145 141 150 157 160 178 210 181 163 186 202 201 175 175 154 162 168 190 215 225 242 207 222 193 176 145 163 174 121 151 169 185 197 208 209 214 222 232 239
297 270 264 220 255 168 211 223 161 160 160 164 170 163 175 189 199 157 172 182 176 178 180 169 165 176 187 194 212 257 147 114 147 158 175 198 175 182 187 170 169 190 202 200 212 212 222 237 248
295 259 258 217 263 210 357 131 155 190 157 169 178 176 178 178 169 191 177 183 182 185 185 184 193 204 202 199 223 168 168 162 180 186 179 183 176 217 192 181 174 178 193 209 213 219 222 244 263
325 256 232 34 59 338 336 217 324 192 174 170 180 171 173 174 183 186 203 181 180 175 183 186 197 206 209 204 221 211 208 187 207 188 174 181 195 208 216 182 192 204 231 221 225 229 228 243 259
233 93 114 116 91 156 291 101 258 343 200 177 176 177 177 190 175 190 195 188 173 180 185 192 199 207 210 214 218 222 198 211 241 188 190 190 207 203 217 211 198 212 226 222 228 228 230 232 249
190 104 114 115 66 39 336 7 278 203 199 176 185 175 178 181 165 177 189 196 181 180 187 194 199 205 205 213 212 205 210 215 218 207 203 214 216 215 212 223 218 208 212 225 240 247 253 258 253
39 52 5 49 23 322 352 336 273 235 189 178 181 181 170 173 176 185 191 191 169 180 187 191 196 202 202 205 207 209 212 210 211 205 205 233 267 229 208 216 222 227 237 290 307 284 261 254 256
7 131 142 106 79 291 346 280 280 203 186 172 176 172 165 181 180 186 184 185 187 180 183 178 189 194 196 203 211 213 214 213 212 208 227 250 290 236 212 208 219 322 352 1 343 298 288 287 267
211 46 153 115 66 28 266 283 277 349 155 166 175 168 178 175 177 174 164 182 185 176 171 175 186 193 200 207 211 217 216 219 222 223 230 254 279 221 197 171 119 51 33 341 321 295 294 295 285
165 162 88 90 119 168 353 297 263 342 356 189 178 177 178 176 171 163 165 159 161 174 168 177 186 190 198 205 211 216 218 217 218 224 242 237 232 141 166 153 148 302 308 281 301 295 290 292 305
126 187 128 107 124 137 164 277 217 266 293 42 220 183 175 180 171 172 173 175 176 173 170 178 182 189 198 203 210 213 218 219 220 227 232 227 237 239 103 194 201 224 268 278 294 301 320 331 321
168 156 139 131 211 173 131 262 307 294 61 5 106 105 173 180 183 174 172 131 127 159 167 144 143 160 189 215 226 214 214 217 219 226 229 231 242 218 214 226 242 224 272 259 303 335 339 335 328